Location: Casa Rossa
(45.2389°N, 12.2056°E)
Time: 22:00:17
(UTC+00:00)

USA 238 DEB - Pass Details

Date: 14 July 2020
Orbit: 1009 x 1203 km, 63.4° (Epoch: 11 August)

Event Time Altitude Azimuth Distance (km) Brightness Sun altitude
Exits shadow 02:58:26 - 212° (SSW) 3,190 5.6 -6.4°
Reaches altitude 10° 02:59:30 10° 211° (SSW) 2,800 5.3 -6.2°
Maximum altitude 03:06:05 81° 125° (SE) 1,060 3.8 -5.3°
Drops below altitude 10° 03:12:59 10° 40° (NE) 2,924 7.7 -4.4°
Sets 03:15:42 0° 39° (NE) 3,912 8.6 -4.0°
